This is the latest recevied weather packets stored in our database for station/object YF9UAG-16. If no packets are shown the sender has not sent any weather packets the latest 10 day(s).
| Time | Temp. | Humidity | Pressure | Rain* | Wind** | Luminosity | Snow |
|---|---|---|---|---|---|---|---|
| 1788123056 | 79° F | 92% | 761.1 mmHg | - | - | - | - |
| 1788122156 | 79° F | 92% | 761 mmHg | - | - | - | - |
| 1788121256 | 80° F | 92% | 760.8 mmHg | - | - | - | - |
| 1788120356 | 80° F | 92% | 760.7 mmHg | - | - | - | - |
| 1788119456 | 80° F | 93% | 760.5 mmHg | - | - | - | - |
| 1788118556 | 80° F | 93% | 760.4 mmHg | - | - | - | - |
| 1788117656 | 80° F | 93% | 760.3 mmHg | - | - | - | - |
| 1788116756 | 80° F | 92% | 760.3 mmHg | - | - | - | - |
| 1788115856 | 80° F | 92% | 760.4 mmHg | - | - | - | - |
| 1788114956 | 80° F | 92% | 760.4 mmHg | - | - | - | - |
| 1788114056 | 80° F | 93% | 760.5 mmHg | - | - | - | - |
| 1788113156 | 80° F | 91% | 760.6 mmHg | - | - | - | - |
| 1788112256 | 80° F | 91% | 760.6 mmHg | - | - | - | - |
| 1788111356 | 81° F | 92% | 760.6 mmHg | - | - | - | - |
| 1788110456 | 81° F | 92% | 760.6 mmHg | - | - | - | - |
| 1788109556 | 81° F | 91% | 760.6 mmHg | - | - | - | - |
| 1788108656 | 81° F | 91% | 760.6 mmHg | - | - | - | - |
| 1788107756 | 81° F | 89% | 760.7 mmHg | - | - | - | - |
| 1788106856 | 81° F | 88% | 760.7 mmHg | - | - | - | - |
| 1788105956 | 81° F | 86% | 760.8 mmHg | - | - | - | - |
| 1788105056 | 81° F | 85% | 760.9 mmHg | - | - | - | - |
| 1788104157 | 81° F | 89% | 761 mmHg | - | - | - | - |
| 1788103256 | 81° F | 83% | 761 mmHg | - | - | - | - |
| 1788101456 | 81° F | 88% | 761.2 mmHg | - | - | - | - |
| 1788100556 | 81° F | 89% | 761.4 mmHg | - | - | - | - |
* Rain since midnight (hover to see other rain measurements)
** Current wind speed in m/s (hover to see current wind gust speed)